Springfield, MO

11:51 PM CDT on October 16, 2017 (GMT -0500)
Springfield-Branson Regional

Weather History for KSGF - July, 2013

Change the Weather History Date:

Monday, July 22, 2013

  Actual Average Record
Temperature  
Mean Temperature 77 °F 79 °F  
Max Temperature 86 °F 89 °F 104 °F (1901)
Min Temperature 67 °F 68 °F 47 °F (1970)
Degree Days  
Heating Degree Days 0 0  
Month to date heating degree days 0 0  
Since 1 June heating degree days 14 9  
Since 1 July heating degree days 0 0  
Cooling Degree Days 12 14  
Month to date cooling degree days 287 285  
Year to date cooling degree days 698 663  
Since 1 June cooling degree days 571 548  
Growing Degree Days 26 (Base 50)    
Moisture  
Dew Point 68 °F    
Average Humidity 72    
Maximum Humidity 93    
Minimum Humidity 51    
Precipitation  
Precipitation 0.15 in 0.11 in 3.65 in (1940)
Month to date precipitation 2.17 2.76  
Year to date precipitation 28.15 25.64  
Snow  
Snow 0.00 in - - ()
Month to date snowfall 0.0  
Since 1 June snowfall 0.0  
Since 1 July snowfall 0.0  
Snow Depth 0.00 in    
Sea Level Pressure  
Sea Level Pressure 29.86 in    
Wind  
Wind Speed 10 mph (SSW)    
Max Wind Speed 22 mph    
Max Gust Speed 29 mph    
Visibility 9 miles    
Events Rain , Thunderstorm    
T = Trace of Precipitation, MM = Missing Value Source: NWS Daily Summary

Daily Weather History Graph

Daily Weather History Graph

Search for Another Location

Airport or City:

Trip Planner

Search our weather history database for the weather conditions in past years. The results will help you decide how hot, cold, wet, or windy it might be!

Date:

Astronomy

Jul. 22, 2013 Rise Set
Actual Time 6:10 AM CDT 8:29 PM CDT
Civil Twilight 5:40 AM CDT 8:58 PM CDT
Nautical Twilight 5:04 AM CDT 9:35 PM CDT
Astronomical Twilight 4:24 AM CDT 10:14 PM CDT
Moon 8:17 PM CDT (7/22) 6:06 AM CDT (7/22)
Length of Visible Light 15h 17m
Length of Day
14h 18m
Full, 100% of the Moon is Illuminated
Jul 22
Full
Jul 22
Full
Jul 29
Last Quarter
Aug 6
New
Aug 14
First Quarter

Hourly Weather History & Observations

Time (CDT) Temp. Heat Index Dew Point Humidity Pressure Visibility Wind Dir Wind Speed Gust Speed Precip Events Conditions
12:52 AM 73.0 °F - 71.1 °F 93% 29.85 in 9.0 mi SSE 3.5 mph - N/A   Partly Cloudy
1:39 AM 73.9 °F - 72.0 °F 93% 29.88 in 8.0 mi South 4.6 mph - N/A   Mostly Cloudy
1:52 AM 73.9 °F - 72.0 °F 93% 29.84 in 7.0 mi South 4.6 mph - N/A   Overcast
2:40 AM 73.9 °F - 72.0 °F 93% 29.89 in 7.0 mi SSE 4.6 mph - N/A   Overcast
2:52 AM 73.9 °F - 72.0 °F 93% 29.84 in 7.0 mi South 6.9 mph - N/A   Overcast
3:11 AM 73.9 °F - 72.0 °F 93% 29.88 in 7.0 mi South 6.9 mph - N/A   Mostly Cloudy
3:19 AM 73.9 °F - 72.0 °F 93% 29.89 in 7.0 mi South 8.1 mph - N/A   Mostly Cloudy
3:29 AM 73.9 °F - 72.0 °F 93% 29.88 in 7.0 mi South 4.6 mph - N/A   Mostly Cloudy
3:52 AM 73.9 °F - 72.0 °F 93% 29.83 in 7.0 mi SSE 4.6 mph - N/A   Scattered Clouds
4:23 AM 73.9 °F - 72.0 °F 93% 29.88 in 7.0 mi SW 5.8 mph - 0.00 in   Overcast
4:42 AM 75.0 °F - 72.0 °F 90% 29.89 in 9.0 mi West 8.1 mph - 0.00 in Thunderstorm Mostly Cloudy
4:52 AM 73.9 °F - 70.0 °F 87% 29.84 in 10.0 mi WSW 15.0 mph 21.9 mph 0.00 in Rain Light Rain
4:59 AM 73.0 °F - 69.1 °F 87% 29.88 in 10.0 mi WSW 12.7 mph - 0.00 in Rain Light Rain
5:37 AM 71.1 °F - 64.0 °F 78% 29.89 in 10.0 mi NW 8.1 mph - 0.00 in Rain , Thunderstorm Light Thunderstorms and Rain
5:52 AM 70.0 °F - 64.0 °F 81% 29.86 in 10.0 mi WSW 8.1 mph - 0.00 in Rain , Thunderstorm Light Thunderstorms and Rain
6:52 AM 66.9 °F - 64.0 °F 90% 29.86 in 5.0 mi SW 21.9 mph - 0.14 in Rain , Thunderstorm Light Thunderstorms and Rain
7:39 AM 69.1 °F - 64.0 °F 84% 29.90 in 10.0 mi Calm Calm - 0.01 in   Scattered Clouds
7:52 AM 70.0 °F - 63.0 °F 78% 29.86 in 10.0 mi South 3.5 mph - 0.01 in   Partly Cloudy
8:52 AM 73.0 °F - 63.0 °F 71% 29.88 in 10.0 mi SSE 12.7 mph - N/A   Scattered Clouds
9:52 AM 75.0 °F - 64.0 °F 69% 29.88 in 10.0 mi South 8.1 mph - N/A   Mostly Cloudy
10:52 AM 80.1 °F 81.9 °F 64.9 °F 60% 29.87 in 10.0 mi SSW 15.0 mph - N/A   Partly Cloudy
11:52 AM 84.0 °F 87.8 °F 69.1 °F 61% 29.87 in 10.0 mi SW 16.1 mph - N/A   Clear
12:52 PM 84.9 °F 86.6 °F 64.9 °F 51% 29.88 in 10.0 mi SW 16.1 mph - N/A   Scattered Clouds
1:52 PM 86.0 °F 88.2 °F 66.0 °F 51% 29.88 in 10.0 mi WSW 12.7 mph - N/A   Mostly Cloudy
2:52 PM 84.9 °F 88.8 °F 69.1 °F 59% 29.88 in 10.0 mi West 13.8 mph - N/A   Mostly Cloudy
3:52 PM 82.9 °F 87.0 °F 70.0 °F 65% 29.86 in 10.0 mi WSW 8.1 mph 28.8 mph N/A   Clear
4:52 PM 82.0 °F 84.5 °F 66.9 °F 60% 29.83 in 10.0 mi SW 6.9 mph - N/A   Clear
5:52 PM 82.9 °F 85.4 °F 66.9 °F 58% 29.83 in 10.0 mi South 11.5 mph - N/A   Clear
6:52 PM 82.0 °F 84.5 °F 66.9 °F 60% 29.83 in 10.0 mi SSW 6.9 mph - N/A   Clear
7:52 PM 80.1 °F 82.3 °F 66.9 °F 64% 29.84 in 10.0 mi SSW 6.9 mph - N/A   Clear
8:52 PM 75.9 °F - 66.0 °F 71% 29.82 in 10.0 mi South 8.1 mph - N/A   Clear
9:52 PM 75.9 °F - 66.0 °F 71% 29.83 in 10.0 mi South 6.9 mph - N/A   Clear
10:52 PM 73.9 °F - 66.9 °F 79% 29.84 in 10.0 mi South 6.9 mph - N/A   Clear
11:52 PM 75.0 °F - 69.1 °F 82% 29.86 in 10.0 mi South 9.2 mph - N/A   Clear